Location: Bella Coola
(52.3721°N, 126.7539°W)
Time: 21:06:22
(UTC-07:00)

ISS - Pass Details

Date: 23 May 2019
Orbit: 407 x 418 km, 51.6° (Epoch: 20 June)

Event Time Altitude Azimuth Distance (km) Brightness Sun altitude
Rises 00:29:43 0° 276° (W) 2,361 0.3 -16.1°
Reaches altitude 10° 00:31:49 10° 274° (W) 1,499 -0.8 -16.2°
Maximum altitude 00:35:10 70° 190° (S) 449 -3.9 -16.3°
Enters shadow 00:36:54 26° 112° (ESE) 864 -2.5 -16.4°
